#timestamp,LO_Frequency,Hit,StdDev 
1626678015.7,286046993.6,N
1626678035.6,286046993.8,Y
1626678055.4,286046999.6,P
1626678075.2,286046996.9,N
1626678095.1,286046997.8,N
1626678096.0,286046997.8,N
1626678115.8,286046996.5,N
1626678135.7,286046996.5,N
1626678155.5,286046999.0,N
1626678175.3,286046998.2,N
1626678195.2,286047000.5,N
1626678215.0,286047000.6,N
1626678215.9,286047000.6,N
1626678235.8,286047000.9,N
1626678255.6,286046998.5,N
1626678275.4,286046999.5,N
1626678295.3,286046999.6,N
1626678315.1,286046999.2,N
1626678335.8,286046996.6,N
1626678355.7,286046999.0,N
1626678375.5,286046998.9,N
1626678395.4,286046999.1,N
1626678415.2,286047001.0,N
1626678435.0,286047000.7,N
1626678435.9,286047000.7,N
1626678455.8,286046998.2,N
1626678475.6,286047000.6,N
1626678495.5,286047000.2,N
1626678515.3,286047000.5,N
1626678535.1,286047002.3,N
1626678555.9,286047004.4,N
1626678575.7,286047002.2,N
1626678595.6,286046999.9,N
1626678615.4,286046999.7,N
1626678635.2,286047002.4,N
1626678655.1,286047000.1,N
1626678656.0,286047000.1,N
1626678675.8,286047000.8,N
1626678695.6,286046998.5,N
1626678715.5,286046998.1,N
1626678735.3,286047002.7,N
1626678755.2,286047000.2,N
1626678775.9,286046999.7,N
1626678795.7,286047002.8,N
1626678815.6,286047011.9,Y
1626678835.4,286047002.6,P
1626678855.3,286047002.8,N
1626678875.1,286047002.0,N
1626678876.0,286047002.0,N
1626678895.8,286047001.9,N
1626678915.7,286047002.1,N
1626678935.5,286047002.4,Y
1626678955.3,286047001.2,P
1626678975.2,286047001.1,N
1626678995.0,286046998.1,P
1626678995.9,286046998.1,N
1626679015.8,286047000.8,N
1626679035.6,286047000.7,N
1626679055.4,286047000.3,N
1626679075.3,286047002.3,N
1626679095.1,286047002.3,N
1626679115.8,286046999.8,N
1626679135.7,286047000.1,N
1626679155.5,286047000.0,N
1626679175.4,286047001.0,N
1626679195.2,286046998.5,N
1626679215.0,286046998.3,N
1626679215.9,286046998.3,N
1626679235.8,286046999.3,N
1626679255.6,286046998.6,N
1626679275.5,286046998.3,N
1626679295.3,286047001.2,N
1626679315.1,286046998.3,N
1626679335.9,286047001.1,N
1626679355.7,286047001.2,N
1626679375.5,286047000.8,N
1626679395.4,286047000.7,N
1626679415.2,286047000.8,N
1626679435.1,286047000.5,N
1626679436.0,286047000.5,N
1626679455.8,286046998.5,N
1626679475.6,286047000.9,N
1626679495.5,286047000.9,N
1626679515.3,286047000.5,N
1626679535.1,286046998.6,N
1626679555.9,286047000.8,N
1626679575.7,286047000.6,N
1626679595.6,286046998.1,N
1626679615.4,286046998.4,N
1626679635.2,286046997.7,N
1626679655.1,286046999.3,N
1626679656.0,286046999.3,N
1626679675.8,286046999.5,N
1626679695.6,286046996.6,N
1626679715.5,286046997.3,N
1626679735.3,286046997.5,N
1626679755.2,286046999.1,N
1626679775.9,286047000.3,N
1626679795.7,286047002.6,N
1626679815.6,286047002.1,N
1626679835.4,286047002.0,N
1626679855.2,286047001.5,N
1626679875.1,286047001.9,N
1626679876.0,286047001.9,N
1626679895.8,286047004.4,N
1626679915.7,286047005.6,Y
1626679935.5,286047006.0,P
1626679955.4,286047003.4,N
1626679975.2,286047002.9,N
1626679995.0,286047004.1,N
1626680015.9,286047004.2,N
1626680035.7,286047001.9,N
1626680055.6,286047003.2,N
1626680075.4,286047003.1,N
1626680095.2,286047001.8,N
1626680115.1,286047004.1,N
1626680116.0,286047004.1,N
1626680135.8,286047002.1,N
1626680155.7,286047002.6,N
1626680175.5,286047002.4,N
1626680195.3,286047002.0,N
1626680215.5,286047001.4,N
1626680235.3,286047001.8,N
1626680255.2,286047001.6,N
1626680275.0,286047002.4,N
1626680275.9,286047002.4,N
1626680295.8,286046999.8,N
1626680315.6,286046999.9,N
1626680335.4,286046999.8,N
1626680355.3,286046999.8,N
1626680375.1,286047000.7,N
1626680395.8,286046998.3,N
1626680415.7,286046998.8,N
1626680435.5,286046998.7,N
1626680455.4,286046995.4,N
1626680475.8,286046997.3,N
1626680495.6,286046995.1,N
1626680515.5,286046996.1,N
1626680535.3,286046994.5,N
1626680555.2,286046991.8,N
1626680575.9,286046992.4,N
1626680595.7,286046994.3,N
1626680615.6,286046993.7,N
1626680635.4,286046994.1,N
1626680655.2,286046994.0,N
1626680675.1,286046993.6,N
1626680676.0,286046993.6,N
1626680695.8,286046993.9,N
1626680715.7,286046996.1,N
1626680735.5,286046994.0,N
1626680755.3,286046992.3,N
1626680775.2,286046991.2,N
1626680795.0,286046990.7,N
1626680795.9,286046990.7,N
1626680815.7,286046990.1,N
1626680835.6,286046994.3,N
1626680855.4,286046991.7,N
1626680875.3,286046990.3,Y
1626680895.1,286046996.1,P
1626680915.4,286046996.2,P
1626680935.3,286046995.6,P
1626680955.1,286046997.9,Y
1626680975.8,286047001.5,P
1626680995.7,286047006.0,N
1626681015.5,286047005.6,N
1626681035.3,286047003.1,N
1626681055.2,286047003.9,N
1626681075.0,286047001.7,N
1626681076.0,286047001.7,N
1626681095.8,286047003.7,N
1626681115.6,286047003.9,N
1626681135.5,286047003.7,N
1626681155.3,286047003.0,N
1626681175.1,286047005.0,N
1626681195.9,286047005.7,N
1626681215.7,286047005.1,N
1626681235.6,286047006.8,N
1626681255.4,286047007.6,N
1626681275.2,286047004.7,N
1626681295.1,286047005.9,N
1626681296.0,286047005.9,N
1626681315.8,286047003.9,N
1626681335.7,286047001.7,N
1626681355.5,286047001.4,N
1626681375.3,286047001.3,N
1626681395.2,286047003.7,N
1626681415.0,286047001.4,N
1626681415.9,286047001.4,N
1626681435.8,286047002.3,N
1626681455.6,286047000.3,N
1626681475.4,286046999.8,N
1626681495.3,286047000.7,N
1626681515.1,286047000.0,N
1626681535.9,286046999.9,N
1626681555.7,286047002.2,N
1626681575.5,286046999.7,N
1626681595.4,286047000.5,N
